Location: Dead Woman Crossing
(43.5369°N, 106.3228°W)
Time: 09:40:13
(UTC+00:00)

ITUPSAT 1 - Pass Details

Date: 03 July 2022
Orbit: 701 x 711 km, 98.6° (Epoch: 13 August)

Event Time Altitude Azimuth Distance (km) Brightness Sun altitude
Rises 04:12:30 0° 6° (N) 3,111 ? -12.1°
Reaches altitude 10° 04:14:52 10° 359° (N) 2,189 ? -12.4°
Maximum altitude 04:19:19 40° 291° (WNW) 1,046 ? -12.9°
Drops below altitude 10° 04:23:46 10° 223° (SW) 2,180 ? -13.4°
Sets 04:26:07 0° 216° (SW) 3,096 ? -13.7°
